CZ-4C DEB, 43420

Orbit data source: Space-Track

CZ-4C DEB, 43420 is space debris in LEO originally from a launch on Wed, 10 Dec 2014 UTC launched from the Jiuquan Satellite Launch Center, China (JSC). Debris objects in space refer to the collection of defunct objects orbiting the Earth. Examples of debris include non-operational satellites, rocket bodies, and fragments generated from explosions, collisions, or faulty payload assembly.

Loading next visibility...
Identifier
43420, 2014-080J
Orbit
LEO
Country
Flag of CNCN / PRC
Related business
Manufacturer
SAST
Mission
Spacecraft
Bus & Motor
Unknown
Mass
Unknown
Launch date (UTC)
2014-12-10 (11 years ago)
Launch vehicle
Unknown
Launch site
Jiuquan Satellite Launch Center, China (JSC)
Object type
Payload
Rocket body
Debris
Shape & HBR
Unknown shape, 0.1 m
Radar Cross Section
Small (<0.1 m²)

Expand to show TLE details & history
Last TLE update: 5 months ago

TLE from 5 months ago
0 CZ-4C DEB
1 43420U 14080J   25263.40073775  .00002122  00000-0  23056-2 0  9992
2 43420  63.3955 258.0091 0340184   9.2733 351.4369 13.52842351518497
Epoch: 2025-09-20T09:37Z
TLE epoch observation values (Epoch: 2025-09-20T09:37:03.741Z)
Latitude
0.00002°
Longitude
114.20935°
Altitude
813.496 km
Speed
7.571 km/s
True Right ascension
17h 12m 02s
True Declination
0° 00' 00"
Sunlit
Object was in daylight at epoch
Visualization orbit readout
Latitude
Unknown
Longitude
Unknown
Altitude
Unknown
Speed
Unknown
Apparent Right ascension
Unknown
Apparent Declination
Unknown
Sunlit
N/A
Visualization observer readout
Local Sidereal Time
22:58:15
Azimuth
Unknown
Elevation
Unknown
Doppler factor
Unknown
Orbital elements
Apogee altitude
1,313.698 km
Perigee altitude
807.587 km
Semi-major axis
7,438.78 km
Eccentricity
0.03402
Inclination
63.3955°
RAAN
258.0091°
Arg. of periapsis
9.2733°
True anomaly
350.83104°
Mean anomaly
351.4369°
Eccentric anomaly
351.13658°
Mean motion
3.38291 °/min
Orbital period
106.42 mins
BSTAR
0.0023056
Loading maneuver chart data...
Computing Atmospheric mass density...
Loading historical data...
Loading historical data...
Loading historical data...
Loading historical data...
Loading historical data...
Loading historical data...
Loading historical data...

Documentation

Showing up to 5 results
|